Weather History for Lee's Summit, MO

Change the Weather History Date:

Saturday, February 9, 2013

  Actual Average (KMKC) Record (KMKC)
Temperature  
Mean Temperature 38 °F -  
Max Temperature 48 °F 42 °F 66 °F (2009)
Min Temperature 28 °F 25 °F 5 °F (2011)
Degree Days  
Heating Degree Days 27    
Moisture  
Dew Point 29 °F    
Average Humidity 78    
Maximum Humidity 93    
Minimum Humidity 51    
Precipitation  
Precipitation 0.03 in - - ()
Sea Level Pressure  
Sea Level Pressure 30.08 in    
Wind  
Wind Speed 10 mph (SE)    
Max Wind Speed 15 mph    
Max Gust Speed 25 mph    
Visibility 9 miles    
Events Rain    
Averages and records for this station are not official NWS values.
T = Trace of Precipitation, MM = Missing Value Source: NWS Daily Summary

Daily Weather History Graph

Daily Weather History Graph

Search for Another Location

Airport:

Trip Planner

Search our weather history database for the weather conditions in past years. The results will help you decide how hot, cold, wet, or windy it might be!

Date:

Astronomy

Feb. 09, 2013 Rise Set
Actual Time 7:15 AM CST 5:48 PM CST
Civil Twilight 6:47 AM CST 6:16 PM CST
Nautical Twilight 6:16 AM CST 6:47 PM CST
Astronomical Twilight 5:45 AM CST 7:18 PM CST
Moon 6:27 AM CST (2/9) 5:31 PM CST (2/9)
Length of Visible Light 11h 28m
Length of Day
10h 32m
Waning Crescent, 0% of the Moon is Illuminated
Feb 9
Waning Crescent
Feb 10
New
Feb 17
First Quarter
Feb 25
Full
Mar 4
Last Quarter

Hourly Weather History & Observations

Time (CST) Temp. Windchill Dew Point Humidity Pressure Visibility Wind Dir Wind Speed Gust Speed Precip Events Conditions
12:53 AM 28.9 °F 19.8 °F 25.0 °F 85% 30.27 in 8.0 mi ESE 10.4 mph - N/A   Clear
1:53 AM 28.9 °F 19.8 °F 25.0 °F 85% 30.26 in 8.0 mi SE 10.4 mph - N/A   Clear
2:27 AM 28.4 °F 21.2 °F 24.8 °F 86% 30.23 in 8.0 mi SE 6.9 mph - N/A   Partly Cloudy
2:53 AM 28.9 °F 19.2 °F 25.0 °F 85% 30.24 in 8.0 mi ESE 11.5 mph 18.4 mph N/A   Clear
3:21 AM 28.4 °F 19.7 °F 24.8 °F 86% 30.21 in 8.0 mi ESE 9.2 mph - N/A   Partly Cloudy
3:53 AM 28.9 °F 19.2 °F 25.0 °F 85% 30.22 in 8.0 mi SE 11.5 mph - N/A   Clear
4:05 AM 28.4 °F 20.4 °F 26.6 °F 93% 30.19 in 8.0 mi ESE 8.1 mph - N/A   Partly Cloudy
4:53 AM 28.9 °F 21.1 °F 26.1 °F 89% 30.22 in 8.0 mi SE 8.1 mph - N/A   Partly Cloudy
5:23 AM 28.4 °F 19.7 °F 26.6 °F 93% 30.18 in 8.0 mi ESE 9.2 mph - N/A   Mostly Cloudy
5:53 AM 28.9 °F 19.2 °F 26.1 °F 89% 30.20 in 7.0 mi SE 11.5 mph - N/A   Scattered Clouds
6:53 AM 28.9 °F 19.8 °F 26.1 °F 89% 30.20 in 7.0 mi SE 10.4 mph 18.4 mph N/A   Mostly Cloudy
7:53 AM 28.9 °F 19.8 °F 27.0 °F 92% 30.20 in 4.0 mi SE 10.4 mph 17.3 mph N/A   Overcast
8:53 AM 30.9 °F 23.5 °F 28.0 °F 89% 30.19 in 5.0 mi SSE 8.1 mph 17.3 mph N/A   Overcast
9:53 AM 33.1 °F 26.9 °F 28.9 °F 85% 30.19 in 7.0 mi SSE 6.9 mph - N/A   Overcast
10:24 AM 33.8 °F 25.8 °F 30.2 °F 87% 30.15 in 8.0 mi SE 10.4 mph - N/A   Scattered Clouds
10:53 AM 37.0 °F 29.8 °F 28.9 °F 73% 30.17 in 10.0 mi SSE 10.4 mph 18.4 mph N/A   Partly Cloudy
11:53 AM 39.0 °F 32.3 °F 28.9 °F 67% 30.13 in 10.0 mi SSE 10.4 mph - N/A   Clear
12:53 PM 42.1 °F 36.1 °F 30.0 °F 62% 30.09 in 10.0 mi SSE 10.4 mph 17.3 mph N/A   Clear
1:53 PM 44.1 °F 39.0 °F 30.9 °F 60% 30.02 in 10.0 mi SE 9.2 mph - N/A   Clear
2:53 PM 48.0 °F - 30.9 °F 52% 29.99 in 10.0 mi SE 12.7 mph 20.7 mph N/A   Clear
3:53 PM 46.0 °F 40.6 °F 28.9 °F 51% 29.98 in 10.0 mi SSE 11.5 mph 18.4 mph N/A   Clear
4:53 PM 46.0 °F 40.2 °F 30.0 °F 54% 29.95 in 10.0 mi SE 12.7 mph - N/A   Mostly Cloudy
5:53 PM 45.0 °F 38.2 °F 28.0 °F 52% 29.93 in 10.0 mi SSE 15.0 mph 23.0 mph N/A   Scattered Clouds
6:53 PM 42.1 °F 35.7 °F 30.9 °F 65% 29.91 in 10.0 mi SE 11.5 mph 19.6 mph 0.00 in   Overcast
7:53 PM 39.9 °F 34.5 °F 33.1 °F 77% 29.90 in 10.0 mi SSE 8.1 mph 19.6 mph 0.02 in Rain Light Rain
8:53 PM 39.0 °F 32.3 °F 34.0 °F 82% 29.88 in 10.0 mi SE 10.4 mph 17.3 mph 0.01 in   Overcast
9:53 PM 39.0 °F 32.8 °F 34.0 °F 82% 29.86 in 10.0 mi SSE 9.2 mph 18.4 mph N/A   Overcast
10:53 PM 39.9 °F 32.5 °F 35.1 °F 83% 29.81 in 10.0 mi SSE 12.7 mph 20.7 mph N/A   Overcast
11:42 PM 39.2 °F 31.6 °F 35.6 °F 87% 29.77 in 10.0 mi SSE 12.7 mph 19.6 mph N/A   Overcast
11:53 PM 39.9 °F 32.9 °F 36.0 °F 86% 29.79 in 10.0 mi SSE 11.5 mph 25.3 mph N/A   Overcast